FW7665 Weather Reports


Display with metric or nautical units.
time (UTC)temp
F
wind
direction
speed
MPH
gust
MPH
rain 1hr
in
rain 24hr
in
rain mn
in
humidity
%
barometer
mb
20220812173603 77 0 0.0 0.0 0.00 0.00 0.00 43 1031.2
20220812172703 77 0 0.0 0.0 0.00 0.00 0.00 40 1031.2
20220812171803 76 0 0.0 0.0 0.00 0.00 0.00 40 1031.2
20220812170903 76 0 0.0 0.0 0.00 0.00 0.00 41 1031.2
20220812170024 75 0 0.0 0.0 0.00 0.00 0.00 43 1031.2
20220812165424 74 0 0.0 0.0 0.00 0.00 0.00 41 1031.2
20220812164525 74 0 0.0 0.0 0.00 0.00 0.00 44 1031.2
20220812163603 73 0 0.0 0.0 0.00 0.00 0.00 42 1031.2
20220812162725 72 0 0.0 0.0 0.00 0.00 0.00 43 1031.2
20220812161803 71 0 0.0 0.0 0.00 0.00 0.00 45 1031.2
20220812160903 70 0 0.0 0.0 0.00 0.00 0.00 46 1031.2
20220812160045 69 0 0.0 0.0 0.00 0.00 0.00 46 1031.2
20220812155445 69 0 0.0 0.0 0.00 0.00 0.00 49 1031.2
20220812154544 67 0 0.0 0.0 0.00 0.00 0.00 50 1031.1
20220812153623 64 0 0.0 0.0 0.00 0.00 0.00 55 1031.1
20220812152723 62 0 0.0 0.0 0.00 0.00 0.00 59 1031.1
20220812151823 60 0 0.0 0.0 0.00 0.00 0.00 64 1031.1
20220812150943 57 0 0.0 0.0 0.00 0.00 0.00 73 1031.1
20220812150044 55 0 0.0 0.0 0.00 0.00 0.00 77 1031.1
20220812145423 53 0 0.0 0.0 0.00 0.00 0.00 80 1031.1
20220812144523 53 0 0.0 0.0 0.00 0.00 0.00 83 1031.0
20220812143602 52 0 0.0 0.0 0.00 0.00 0.00 83 1031.0
20220812142702 51 0 0.0 0.0 0.00 0.00 0.00 83 1031.0
20220812141802 50 0 0.0 0.0 0.00 0.00 0.00 84 1031.0
20220812140944 50 0 0.0 0.0 0.00 0.00 0.00 84 1031.0
20220812140002 50 0 0.0 0.0 0.00 0.00 0.00 84 1031.0
20220812135402 49 0 0.0 0.0 0.00 0.00 0.00 83 1031.0
20220812134502 49 0 0.0 0.0 0.00 0.00 0.00 84 1030.6
20220812133602 48 0 0.0 0.0 0.00 0.00 0.00 82 1030.6
20220812132723 48 0 0.0 0.0 0.00 0.00 0.00 83 1030.6
20220812131823 48 0 0.0 0.0 0.00 0.00 0.00 82 1030.6
20220812130902 48 0 0.0 0.0 0.00 0.00 0.00 82 1030.6
20220812130002 48 0 0.0 0.0 0.00 0.00 0.00 81 1030.6
20220812125423 48 0 0.0 0.0 0.00 0.00 0.00 82 1030.6
20220812124523 48 0 0.0 0.0 0.00 0.00 0.00 81 1030.6
20220812123602 48 0 0.0 0.0 0.00 0.00 0.00 81 1030.6
20220812122723 48 0 0.0 0.0 0.00 0.00 0.00 81 1030.6
20220812121802 48 0 0.0 0.0 0.00 0.00 0.00 81 1030.6
20220812120902 48 0 0.0 0.0 0.00 0.00 0.00 81 1030.6
20220812120023 48 0 0.0 0.0 0.00 0.00 0.00 81 1030.6
20220812115402 48 0 0.0 0.0 0.00 0.00 0.00 82 1030.6
20220812114544 48 0 0.0 0.0 0.00 0.00 0.00 82 1030.2
20220812113602 48 0 0.0 0.0 0.00 0.00 0.00 82 1030.2
20220812112744 48 0 0.0 0.0 0.00 0.00 0.00 81 1030.2
20220812111802 48 0 0.0 0.0 0.00 0.00 0.00 81 1030.2
20220812110944 48 0 0.0 0.0 0.00 0.00 0.00 80 1030.2
20220812110024 49 0 0.0 0.0 0.00 0.00 0.00 80 1030.2
20220812105423 49 0 0.0 0.0 0.00 0.00 0.00 80 1030.2
20220812104544 49 0 0.0 0.0 0.00 0.00 0.00 81 1030.2
20220812103623 49 0 0.0 0.0 0.00 0.00 0.00 81 1030.2
20220812102744 49 0 0.0 0.0 0.00 0.00 0.00 80 1030.2
20220812101802 49 0 0.0 0.0 0.00 0.00 0.00 79 1030.2
20220812100902 50 0 0.0 0.0 0.00 0.00 0.00 79 1030.2
20220812100023 50 0 0.0 0.0 0.00 0.00 0.00 78 1030.2
20220812095444 50 0 0.0 0.0 0.00 0.00 0.00 78 1030.2
20220812094523 50 0 0.0 0.0 0.00 0.00 0.00 77 1030.2
20220812093602 50 0 0.0 0.0 0.00 0.00 0.00 77 1030.2
20220812092723 50 0 0.0 0.0 0.00 0.00 0.00 76 1030.2
20220812091823 51 0 0.0 0.0 0.00 0.00 0.00 75 1030.2
20220812090923 51 0 0.0 0.0 0.00 0.00 0.00 76 1030.2
20220812090002 51 0 0.0 0.0 0.00 0.00 0.00 75 1030.2
20220812085402 51 0 0.0 0.0 0.00 0.00 0.00 74 1030.2
20220812084502 52 0 0.0 0.0 0.00 0.00 0.00 76 1029.8
20220812083623 52 0 0.0 0.0 0.00 0.00 0.00 74 1029.8
20220812082744 52 0 0.0 0.0 0.00 0.00 0.00 75 1029.8
20220812081823 52 0 0.0 0.0 0.00 0.00 0.00 74 1029.8
20220812080902 52 0 0.0 0.0 0.00 0.00 0.00 73 1029.8
20220812080023 52 0 0.0 0.0 0.00 0.00 0.00 74 1029.8
20220812075402 52 0 0.0 0.0 0.00 0.00 0.00 73 1029.8
20220812074502 53 0 0.0 0.0 0.00 0.00 0.00 73 1029.6
20220812073602 53 0 0.0 0.0 0.00 0.00 0.00 71 1029.6
20220812072723 53 0 0.0 0.0 0.00 0.00 0.00 70 1029.6
20220812071844 53 0 0.0 0.0 0.00 0.00 0.00 70 1029.6
20220812070902 53 0 0.0 0.0 0.00 0.00 0.00 72 1029.6
20220812070024 53 0 0.0 0.0 0.00 0.00 0.00 71 1029.6
20220812065402 54 0 0.0 0.0 0.00 0.00 0.00 71 1029.6
20220812064502 54 0 0.0 0.0 0.00 0.00 0.00 71 1030.1
20220812063602 54 0 0.0 0.0 0.00 0.00 0.00 69 1030.1
20220812062744 54 0 0.0 0.0 0.00 0.00 0.00 71 1030.1
20220812061802 54 0 0.0 0.0 0.00 0.00 0.00 71 1030.1
20220812060944 54 0 0.0 0.0 0.00 0.00 0.00 70 1030.1
20220812060009 55 0 0.0 0.0 0.00 0.00 0.00 69 1030.1
20220812055404 55 0 0.0 0.0 0.00 0.00 0.00 68 1030.1
20220812054523 55 0 0.0 0.0 0.00 0.00 0.00 72 1030.0
20220812053644 55 0 0.0 0.0 0.00 0.00 0.00 70 1030.0
20220812052723 55 0 0.0 0.0 0.00 0.00 0.00 72 1030.0
20220812051802 56 0 0.0 0.0 0.00 0.00 0.00 69 1030.0
20220812050944 56 0 0.0 0.0 0.00 0.00 0.00 71 1030.0
20220812050023 56 0 0.0 0.0 0.00 0.00 0.00 70 1030.0
20220812045423 56 0 0.0 0.0 0.00 0.00 0.00 72 1030.0
20220812044523 57 0 0.0 0.0 0.00 0.00 0.00 70 1029.8
20220812043602 57 0 0.0 0.0 0.00 0.00 0.00 70 1029.8
20220812042723 58 0 0.0 0.0 0.00 0.00 0.00 66 1029.8
20220812041802 58 0 0.0 0.0 0.00 0.00 0.00 70 1029.8
20220812040923 58 0 0.0 0.0 0.00 0.00 0.00 70 1029.8
20220812040002 59 0 0.0 0.0 0.00 0.00 0.00 70 1029.8
20220812035444 59 0 0.0 0.0 0.00 0.00 0.00 67 1029.8
20220812034544 59 0 0.0 0.0 0.00 0.00 0.00 67 1029.4
20220812033602 60 0 0.0 0.0 0.00 0.00 0.00 68 1029.4
20220812032723 60 0 0.0 0.0 0.00 0.00 0.00 68 1029.4
20220812031844 60 0 0.0 0.0 0.00 0.00 0.00 65 1029.4
20220812030902 61 0 0.0 0.0 0.00 0.00 0.00 64 1029.4
20220812030024 61 0 0.0 0.0 0.00 0.00 0.00 66 1029.4
20220812025423 61 0 0.0 0.0 0.00 0.00 0.00 65 1029.4
20220812024503 62 0 0.0 0.0 0.00 0.00 0.00 66 1028.7
20220812023602 63 0 0.0 0.0 0.00 0.00 0.00 68 1028.7
20220812022723 63 0 0.0 0.0 0.00 0.00 0.00 63 1028.7
20220812021844 64 0 0.0 0.0 0.00 0.00 0.00 67 1028.7
20220812020902 65 0 0.0 0.0 0.00 0.00 0.00 65 1028.7
20220812020023 65 0 0.0 0.0 0.00 0.00 0.00 66 1028.7
20220812015402 66 0 0.0 0.0 0.00 0.00 0.00 67 1028.7
20220812014502 66 0 0.0 0.0 0.00 0.00 0.00 66 1028.4
20220812013644 66 0 0.0 0.0 0.00 0.00 0.00 64 1028.4
20220812012744 67 0 0.0 0.0 0.00 0.00 0.00 63 1028.4
20220812011802 68 0 0.0 0.0 0.00 0.00 0.00 58 1028.4
20220812010944 68 0 0.0 0.0 0.00 0.00 0.00 60 1028.4
20220812010002 68 0 0.0 0.0 0.00 0.00 0.00 62 1028.4
20220812005402 68 0 0.0 0.0 0.00 0.00 0.00 62 1028.4
20220812004523 69 0 0.0 0.0 0.00 0.00 0.00 58 1028.4
20220812003644 69 0 0.0 0.0 0.00 0.00 0.00 60 1028.4
20220812002744 70 0 0.0 0.0 0.00 0.00 0.00 59 1028.4
20220812001802 70 0 0.0 0.0 0.00 0.00 0.00 56 1028.4
20220812000944 70 0 0.0 0.0 0.00 0.00 0.00 52 1028.4
20220812000024 71 0 0.0 0.0 0.00 0.00 0.00 51 1028.4
20220811235402 72 0 0.0 0.0 0.00 0.00 0.00 51 1028.4
20220811234544 72 0 0.0 0.0 0.00 0.00 0.00 54 1028.7
20220811233623 73 67 0.0 1.0 0.00 0.00 0.00 47 1028.7
20220811232723 75 85 0.0 1.0 0.00 0.00 0.00 43 1028.7
20220811231844 74 85 0.0 2.0 0.00 0.00 0.00 43 1028.7
20220811230902 76 85 0.0 3.0 0.00 0.00 0.00 41 1028.7
20220811230024 76 116 0.0 4.0 0.00 0.00 0.00 35 1028.7
20220811225444 76 101 1.0 4.0 0.00 0.00 0.00 39 1028.7
20220811224524 75 56 0.0 2.0 0.00 0.00 0.00 45 1028.8
20220811223644 76 70 1.0 4.0 0.00 0.00 0.00 42 1028.8
20220811222702 77 122 1.0 4.0 0.00 0.00 0.00 35 1028.8
20220811221802 76 44 0.0 3.0 0.00 0.00 0.00 45 1028.8
20220811220923 76 49 0.0 3.0 0.00 0.00 0.00 41 1028.8
20220811220045 75 64 0.0 3.0 0.00 0.00 0.00 40 1028.8
20220811215402 76 87 1.0 4.0 0.00 0.00 0.00 41 1028.8
20220811214503 76 142 1.0 4.0 0.00 0.00 0.00 39 1028.8
20220811213602 76 118 2.0 7.0 0.00 0.00 0.00 35 1028.8
20220811212702 76 104 2.0 6.0 0.00 0.00 0.00 36 1028.8
20220811211823 76 104 2.0 6.0 0.00 0.00 0.00 39 1028.8
20220811210902 77 100 2.0 9.0 0.00 0.00 0.00 36 1028.8
20220811210003 77 109 2.0 6.0 0.00 0.00 0.00 40 1028.8
20220811205403 77 106 3.0 7.0 0.00 0.00 0.00 35 1028.8
20220811204523 79 99 3.0 10.0 0.00 0.00 0.00 38 1029.5
20220811203644 81 87 3.0 11.0 0.00 0.00 0.00 34 1029.5
20220811202723 81 84 2.0 6.0 0.00 0.00 0.00 34 1029.5
20220811201823 78 301 1.0 3.0 0.00 0.00 0.00 43 1029.5
20220811200923 77 108 3.0 8.0 0.00 0.00 0.00 40 1029.5
20220811200003 77 101 1.0 6.0 0.00 0.00 0.00 37 1029.5
20220811195402 77 78 1.0 4.0 0.00 0.00 0.00 38 1029.5
20220811194502 78 83 1.0 3.0 0.00 0.00 0.00 32 1029.5
20220811193623 78 72 1.0 3.0 0.00 0.00 0.00 33 1029.5
20220811192723 76 167 0.0 3.0 0.00 0.00 0.00 39 1029.5
20220811191802 78 294 1.0 4.0 0.00 0.00 0.00 32 1029.5
20220811190923 78 164 0.0 3.0 0.00 0.00 0.00 35 1029.5
20220811190024 82 138 1.0 5.0 0.00 0.00 0.00 30 1029.5
20220811185423 82 109 1.0 7.0 0.00 0.00 0.00 29 1029.5
20220811184544 83 108 1.0 4.0 0.00 0.00 0.00 27 1030.3
20220811183644 84 81 1.0 7.0 0.00 0.00 0.00 29 1030.3
20220811182744 85 116 4.0 11.0 0.00 0.00 0.00 23 1030.3
20220811181802 83 65 2.0 11.0 0.00 0.00 0.00 27 1030.3
20220811180902 82 56 1.0 6.0 0.00 0.00 0.00 31 1030.3
20220811180023 82 290 2.0 6.0 0.00 0.00 0.00 31 1030.3
20220811175402 81 290 2.0 7.0 0.00 0.00 0.00 32 1030.3
20220811174524 81 343 1.0 3.0 0.00 0.00 0.00 32 1030.3